Location: Équennes
(49.7375°N, 1.9622°E)
Time: 01:50:39
(UTC+00:00)

Feng Yun 1-1 Rocket - Pass Details

Date: 28 January 2023
Orbit: 830 x 933 km, 99.1° (Epoch: 30 March)

Event Time Altitude Azimuth Distance (km) Brightness Sun altitude
Rises 18:46:58 0° 156° (SSE) 3,484 7.2 -20.4°
Reaches altitude 10° 18:49:23 10° 155° (SSE) 2,534 6.5 -20.8°
Maximum altitude 18:54:59 75° 71° (ENE) 900 4.1 -21.7°
Drops below altitude 10° 19:00:29 10° 347° (NNW) 2,486 6.8 -22.6°
Sets 19:02:50 0° 346° (NNW) 3,415 7.5 -23.0°
